Dewpoint
43 43 43 43 43 43 43 43 43 43 43 43 44 45 46 48 49 51 53 54 55 56 57 57 57 57 57 57 57 57 58 58 59 59 59 59 58 58 58 58 58 59 59 59 60 60 61 60 60 58 57 57 57 57 56 55 55 56 56 56 55 55 56 56 56 56 56 56 56
43 43 43 44 44 44 43 43 43 43 43 43 43 43 44 45 46 48 51 53 55 56 57 57 57 57 57 57 57 58 58 58 58 58 58 57 57 57 57 57 57 57 58 58 59 60 60 60 59 58 56 55 55 53 52 51 52 53 54 53 52 52 52 52 52 52 53 53 53
44 43 43 43 43 43 42 42 42 41 41 41 41 42 42 43 44 45 47 50 53 54 56 57 57 57 57 57 57 58 58 58 58 58 57 56 54 53 53 53 54 56 57 58 58 58 57 57 57 56 54 52 52 51 50 49 50 51 52 50 49 49 50 50 50 49 49 50 50
44 44 43 43 43 43 43 42 42 42 41 41 41 41 41 42 43 43 45 48 51 52 54 56 57 57 57 57 57 57 58 58 58 57 56 54 52 52 52 52 53 54 56 57 56 55 55 54 54 53 52 52 51 49 48 48 49 48 48 47 47 47 48 48 47 48 48 48 47
45 45 44 44 43 43 43 43 42 42 42 42 43 43 43 42 42 42 43 45 47 50 53 54 54 56 57 57 57 57 57 57 57 56 54 52 52 53 55 55 55 55 55 56 55 54 53 52 52 51 50 50 48 47 46 46 46 46 46 46 46 47 47 46 46 46 46 45 44
46 45 45 44 44 43 43 43 43 43 43 44 44 44 44 44 43 43 42 41 45 48 51 52 53 54 55 55 55 55 54 53 52 51 50 49 49 50 51 52 53 53 54 54 54 52 52 51 51 50 48 47 46 46 45 46 46 47 46 46 46 46 45 44 43 43 43 43 43
46 46 46 45 45 44 44 43 43 44 44 45 45 46 46 45 45 44 44 44 48 50 50 52 52 52 53 53 53 52 52 51 50 49 48 48 48 49 49 49 49 50 51 51 51 50 50 50 49 48 48 47 46 45 44 44 45 46 45 45 45 44 43 42 42 42 43 43 43
46 46 46 46 45 44 44 43 44 45 46 47 46 46 46 46 46 47 48 48 49 49 49 50 50 51 52 52 52 51 50 49 49 48 48 48 48 49 49 49 49 49 49 49 49 49 49 49 48 48 47 47 46 44 43 43 44 44 44 44 44 43 43 43 43 43 42 43 42
46 46 46 45 45 44 44 44 45 46 46 46 46 46 46 47 48 48 49 49 49 49 49 49 49 50 50 50 50 49 49 49 48 48 48 48 48 48 48 48 48 48 48 48 48 48 48 48 47 47 46 46 46 44 43 44 44 44 43 43 43 43 43 43 42 41 41 41 41
46 46 46 45 45 45 45 45 46 46 46 46 46 46 47 48 48 48 48 48 48 48 48 48 48 49 49 48 48 48 48 48 48 48 48 48 48 48 48 48 48 48 48 48 48 48 48 48 47 47 46 46 45 45 44 44 43 43 43 43 42 42 42 41 40 40 40 40 40
45 45 45 45 45 45 46 46 46 46 46 46 46 46 47 48 47 47 47 47 48 48 48 48 48 48 48 48 48 48 48 48 48 48 48 49 49 49 48 48 48 48 48 47 47 47 47 47 46 46 46 45 44 43 43 42 42 42 42 42 42 41 40 39 40 40 40 39 39
44 44 45 45 45 45 46 46 46 46 46 46 46 46 46 46 46 46 46 47 47 47 47 47 47 48 48 48 48 48 48 48 48 48 49 49 48 48 48 48 48 47 47 46 46 46 46 46 46 45 45 44 43 42 42 42 42 42 41 41 41 40 39 40 39 39 39 38 38
44 44 45 45 45 45 45 45 45 45 45 45 45 46 46 45 46 46 46 47 47 47 47 47 47 48 48 48 48 48 48 48 48 48 48 48 48 48 48 47 47 47 46 45 45 45 45 45 44 43 43 43 41 41 41 41 41 40 40 40 39 39 39 39 39 38 38 37 37
43 44 44 44 44 44 45 45 45 45 44 44 44 44 45 45 45 46 46 46 47 47 47 48 48 48 48 48 48 48 48 48 48 48 48 48 47 47 47 46 46 46 45 44 43 43 43 43 43 42 42 41 39 39 39 39 39 39 39 39 39 38 38 38 38 37 37 37 37
43 43 43 43 44 44 44 44 44 44 43 43 43 44 44 45 45 46 46 46 46 47 47 47 48 48 48 48 48 47 47 47 47 47 46 46 46 46 45 45 44 44 43 43 43 42 42 41 41 40 40 39 38 38 38 38 38 39 39 38 38 38 38 38 37 36 36 36 37
43 43 43 43 43 43 43 43 43 43 43 44 44 44 45 46 46 46 46 46 46 47 47 47 46 46 46 46 46 46 46 46 45 45 45 45 44 44 44 43 43 43 42 42 41 41 40 40 39 39 38 37 37 37 38 39 39 39 39 38 38 38 38 37 37 36 36 36 36
43 43 43 43 43 43 43 43 43 43 44 44 44 45 45 45 46 46 46 46 46 46 45 45 45 45 45 45 45 45 44 44 44 44 44 43 43 43 43 42 42 41 41 40 40 39 39 38 37 37 37 37 37 38 39 39 39 39 39 39 39 38 38 38 37 36 36 37 37
43 43 43 43 43 43 43 43 43 43 44 44 44 44 45 45 45 45 45 45 45 44 44 44 44 44 43 43 43 43 43 43 43 43 43 42 42 42 41 41 41 40 40 39 39 38 38 37 37 37 37 38 38 39 39 39 39 39 39 38 38 38 37 37 36 36 36 37 37
43 43 43 43 43 43 43 43 43 43 43 43 43 43 43 43 44 43 43 43 43 43 43 43 43 43 43 42 42 43 42 42 42 42 41 41 41 41 41 40 40 40 39 39 38 38 38 38 38 38 38 39 39 39 39 39 39 38 38 38 38 37 37 37 37 36 37 37 37
44 43 43 43 43 43 43 43 43 43 43 43 43 43 42 42 42 42 42 42 42 42 42 42 42 42 42 42 41 42 42 42 41 41 41 41 41 40 40 40 40 40 39 39 39 39 39 39 39 38 38 38 38 38 38 38 38 38 38 37 37 37 37 37 37 36 36 36 36
44 43 43 43 43 43 43 43 43 43 42 42 42 42 41 41 41 41 41 41 41 41 40 40 40 40 40 40 40 40 41 41 40 40 40 40 40 40 40 40 40 39 39 39 39 39 39 38 38 38 38 38 38 38 38 38 38 37 37 37 37 37 37 36 36 36 36 35 35
44 43 43 43 43 43 43 42 42 42 42 42 41 41 41 41 41 40 41 41 40 40 40 39 39 39 39 39 40 40 40 40 40 40 40 40 40 39 39 39 39 39 39 39 39 39 38 38 38 38 38 38 37 37 37 37 37 37 37 36 36 36 36 36 36 35 35 35 34
43 43 42 42 42 42 42 42 42 42 41 41 41 41 41 40 40 40 40 41 40 40 40 40 40 40 40 40 40 40 40 40 39 39 39 39 39 39 39 39 39 38 39 39 38 38 38 38 38 38 38 37 37 37 37 36 36 36 36 36 36 36 36 36 35 35 35 35 34
42 42 42 42 42 42 42 42 42 41 41 41 40 40 40 40 40 40 40 40 40 40 40 40 40 40 40 40 39 39 39 39 39 39 39 39 39 39 39 39 38 38 38 39 39 39 39 39 38 38 38 37 37 37 37 36 36 36 35 35 35 35 35 35 35 35 35 35 35
42 42 42 42 42 42 42 42 41 41 41 41 40 40 40 40 40 40 40 40 40 40 40 39 39 39 39 39 39 39 39 39 39 39 39 39 39 39 39 39 39 39 40 41 41 40 40 39 39 38 38 37 37 37 36 36 35 35 35 34 34 34 34 34 34 34 34 34 34
42 42 42 42 42 42 41 41 41 41 41 41 40 40 40 40 40 40 40 40 39 39 39 39 39 39 39 39 39 39 39 39 39 39 39 39 39 39 40 40 40 41 41 41 41 41 41 40 40 39 37 37 36 36 35 35 35 34 34 34 34 34 34 34 34 33 33 32 32
42 42 41 41 41 41 41 41 41 41 40 40 40 40 40 40 40 39 39 39 39 39 39 39 39 39 39 38 38 38 39 39 39 39 39 39 39 39 40 41 41 42 42 42 42 42 41 41 40 39 37 35 35 34 34 34 34 34 33 33 33 33 33 33 33 32 32 31 30
41 41 41 41 40 40 40 40 40 40 40 40 40 39 39 39 39 39 39 39 39 39 39 39 39 39 38 38 38 38 38 38 39 39 39 39 39 40 41 41 42 42 42 42 42 41 41 41 40 39 38 35 34 34 34 34 33 33 33 33 33 33 32 32 32 32 31 31 30
41 41 40 40 40 40 39 39 39 39 39 39 39 39 39 39 39 39 39 39 39 39 39 39 39 39 38 38 38 38 38 38 39 39 39 40 40 41 41 41 42 42 42 41 41 41 41 40 40 39 38 37 35 34 34 34 33 33 33 33 32 32 32 31 31 30 30 30 30
41 40 40 39 39 39 39 39 39 39 39 39 39 39 38 39 39 38 38 38 39 39 39 39 39 39 38 38 38 38 39 39 39 39 40 40 41 41 41 41 41 41 41 41 41 41 40 40 39 39 38 37 35 34 34 33 33 33 32 32 31 31 30 30 30 30 30 30 29
40 39 39 39 39 39 39 39 39 39 38 38 37 37 38 38 38 38 38 38 38 39 38 38 38 38 38 38 38 39 39 39 40 40 40 40 40 40 40 40 39 40 41 41 41 40 40 40 39 39 38 37 34 33 32 32 31 30 30 30 30 30 30 30 30 30 29 29 28
39 39 39 39 39 39 39 39 39 38 38 37 37 38 38 38 39 39 39 39 38 38 38 38 38 38 38 39 39 39 39 39 40 40 40 39 39 39 39 39 39 39 41 40 40 40 39 39 39 38 37 36 34 32 30 30 30 29 29 29 29 30 30 30 29 29 29 28 28
39 39 39 39 39 39 39 39 39 38 38 38 38 38 38 38 39 39 38 39 38 38 38 38 38 39 39 39 39 39 39 39 39 39 39 39 38 38 37 38 39 40 40 40 40 39 39 39 38 37 36 35 33 31 30 30 30 29 29 28 28 28 28 28 28 28 27 27 27
39 39 39 39 39 39 39 39 39 38 38 38 38 38 38 38 39 39 39 39 39 39 39 39 39 39 39 39 39 39 39 39 39 38 38 37 37 36 36 37 39 40 40 39 39 39 39 38 38 37 35 34 32 30 30 29 29 28 27 27 26 26 26 25 25 25 25 25 25
39 39 38 38 38 38 38 38 38 38 38 38 38 38 39 39 39 39 39 39 39 39 39 39 39 39 39 39 39 38 38 38 37 37 37 37 37 37 37 37 39 39 39 39 39 39 38 38 37 36 34 32 30 29 28 27 27 26 25 25 25 25 24 24 24 25 25 25 24
39 38 38 37 36 36 37 37 38 38 38 38 38 39 39 39 39 39 39 39 39 39 39 39 39 38 38 38 38 38 37 37 37 37 37 36 36 36 37 38 39 39 39 39 38 38 37 37 36 34 33 30 28 27 27 26 26 25 25 25 24 24 24 25 25 25 25 25 25
39 38 37 36 36 36 37 37 37 38 38 38 38 38 39 39 39 39 39 39 39 38 38 38 37 37 37 37 37 37 37 36 36 36 36 36 35 36 37 37 38 38 38 38 37 37 36 35 34 33 31 28 26 26 26 25 25 25 25 25 25 25 25 25 24 24 24 24 25
38 37 37 37 37 38 38 38 38 38 38 38 38 38 39 39 39 39 39 39 38 37 37 37 36 36 36 36 36 36 36 36 35 35 35 36 36 36 36 36 37 37 37 37 37 36 35 34 34 32 30 27 26 25 25 25 25 25 25 25 25 24 24 23 22 21 21 22 27
38 38 37 37 38 38 38 38 38 38 38 38 38 39 39 39 39 39 38 38 37 37 36 36 36 36 36 36 36 35 35 35 35 35 35 36 36 36 36 35 36 36 37 36 36 35 34 34 33 31 30 27 25 25 25 24 24 24 24 23 22 21 21 19 18 17 18 20 27
39 38 38 38 38 38 38 38 38 38 38 38 38 39 39 39 38 38 38 37 37 36 36 35 35 36 36 36 35 35 34 35 35 35 36 36 36 36 35 34 35 35 36 36 35 35 34 34 32 31 30 27 24 23 23 22 22 21 21 19 18 17 17 16 16 16 16 17 23
39 38 38 38 38 38 38 38 38 38 38 38 38 38 38 38 37 37 37 37 36 36 35 35 35 35 35 35 34 34 33 33 34 34 34 34 34 34 33 31 31 32 33 33 34 34 33 33 32 31 30 26 22 21 20 20 19 18 17 16 15 15 16 16 16 16 16 16 16